Regional Weather Roundup
Issued by NWS

Home | Current Version | Previous Version | Graphics & Text | Print | Product List | Glossary Off
Versions: 1 2 3 4 5 6 7 8 9 10 11 12 13 14 15 16 17 18 19 20 21 22 23 24 25 26 27 28 29 30 31 32 33 34 35 36 37 38 39 40 41 42 43 44 45 46 47 48 49 50

000
ASUS43 KDTX 222110
RWRMI
MICHIGAN HOURLY REGIONAL WEATHER ROUNDUP
NATIONAL WEATHER SERVICE DETROIT/PONTIAC MI
500 PM EDT SUN APR 22 2018

NOTE: "FAIR" INDICATES FEW OR NO CLOUDS BELOW 12,000 FEET WITH NO
SIGNIFICANT WEATHER AND/OR OBSTRUCTION TO VISIBILITY.

MIZ047>049-052>055-059>063-066>070-074>076-081>083-222200-
SOUTHEAST LOWER MICHIGAN

CITY           SKY/WX    TMP DP  RH WIND       PRES   REMARKS
ADRIAN         FAIR      60  25  26 E15G24    30.32F
ALMA           FAIR      62  27  26 E8        30.34S
ANN ARBOR      FAIR      61  27  27 NE8       30.33F
BAD AXE        FAIR      60   9  13 E8        30.38F
CARO           FAIR      62  22  22 SE8       30.34F
DETROIT CITY   FAIR      59  24  26 E10       30.35F
DETROIT        FAIR      62  24  23 E9        30.34F
FLINT          FAIR      61  25  25 E9        30.33F
GROSSE ILE     FAIR      61  26  26 E9        30.33F
HILLSDALE      FAIR      61  21  21 E14G21    30.30F
HOWELL         FAIR      60  18  19 E7G16     30.32F

CITY           SKY/WX    TMP DP  RH WIND       PRES   REMARKS
JACKSON        FAIR      62  21  20 E8        30.31F
LAMBERTVILLE   FAIR      57  19  22 E14       30.33F
LANSING        FAIR      63  25  23 E14G20    30.32F
LAPEER         FAIR      60  19  21 E6        30.35F
MASON          FAIR      64  15  15 NE9G17    30.31F
MONROE         FAIR      57  21  25 SE12G22   30.34S
MT. CLEMENS    MOSUNNY   60  27  28 VRB5      30.36S
PONTIAC        PTSUNNY   60  23  24 VRB3      30.33F
PORT HOPE        N/A     47  36  65 E13       30.37F
PORT HURON     FAIR      61  25  25 NE7       30.37S
TRI CITIES     FAIR      61  29  29 NE12      30.36F
MIDLAND        FAIR      59  29  31 E6        30.34F
TROY           FAIR      61  18  18 NE8       30.36F
SAGINAW HB     FAIR      61  30  31 N17       30.34F
$$
MIZ043>046-050>051-056>058-064>065-071>073-077>080-222200-
SOUTHWEST LOWER MICHIGAN

CITY           SKY/WX    TMP DP  RH WIND       PRES   REMARKS
BATTLE CREEK   FAIR      62  23  22 E12G21    30.30F
BENTON HARBOR  FAIR      65  23  20 E12G21    30.27F
BIG RAPIDS     FAIR      63  11  13 E9        30.31F
COLDWATER      FAIR      61  25  24 E15       30.29F
FREMONT        FAIR      65   0   7 E8G16     30.30F
HOLLAND        FAIR      64  26  23 NE12G20   30.30F
GRAND RAPIDS   PTSUNNY   63  27  25 E9G20     30.31F
IONIA          FAIR      62  23  22 E10       30.31F
KALAMAZOO      FAIR      65  22  19 E13       30.29F
LUDINGTON      FAIR      56  26  30 N6        30.32F
MARSHALL       FAIR      62  19  19 E10G17    30.29F
MOUNT PLEASANT FAIR      62  24  23 NE9       30.33F
MUSKEGON       FAIR      61  26  26 W10       30.31F
SOUTH HAVEN    FAIR      65  16  15 E12       30.28F
$$
MIZ016>042-222200-
NORTHERN LOWER MICHIGAN

CITY           SKY/WX    TMP DP  RH WIND       PRES   REMARKS
ALPENA         FAIR      52  22  30 E10       30.39F
BEAVER ISLAND  FAIR      55  16  22 NW6       30.37F
BELLAIRE       FAIR      61  19  19 NW6       30.33F
CADILLAC       FAIR      62  23  22 SE8       30.31F
CHARLEVOIX     FAIR      50  22  33 NW6       30.39S
FRANKFORT      FAIR      59  24  26 N9        30.33F
GAYLORD        FAIR      58  13  17 NE6       30.34F
GRAYLING       FAIR      59  23  24 SE7       30.32F
HARBOR SPRINGS FAIR      49  25  39 CALM      30.34F
HOUGHTON LAKE  FAIR      62  18  18 E5        30.33F
MANISTEE       FAIR      57  22  25 NW12      30.33F
OSCODA         FAIR      51  24  34 E6        30.39F
PELLSTON       FAIR      58  20  22 N10       30.35F
ROGERS CITY    FAIR      55  23  29 E6        30.38F
TRAVERSE CITY  FAIR      52  29  41 NE8       30.32F
$$
MIZ007>008-015-222200-
EASTERN UPPER MICHIGAN

CITY           SKY/WX    TMP DP  RH WIND       PRES   REMARKS
KINROSS        FAIR      57  14  18 SE8       30.36F
MACKINAC ISLAN FAIR      52  20  28 E6        30.36F
NEWBERRY       FAIR      53  15  22 S10       30.35F
S. S. MARIE    FAIR      59  17  19 SE8       30.35F
MUNISING         N/A     44  31  60 N3        30.30F
$$
MIZ004>006-011>014-085-222200-
CENTRAL UPPER MICHIGAN

CITY           SKY/WX    TMP DP  RH WIND       PRES   REMARKS
MANISTIQUE     FAIR      54   6  15 S6        30.35F
ESCANABA       FAIR      52  21  29 SE8       30.35F
MENOMINEE      FAIR      57  22  25 SE12      30.35F
SAWYER-GWINN   SUNNY     59  16  18 SE7       30.30F
$$
MIZ001>003-009>011-084-222200-
WESTERN UPPER MICHIGAN

CITY           SKY/WX    TMP DP  RH WIND       PRES   REMARKS
IRON MOUNTAIN  FAIR      63  21  20 S6        30.27F
HOUGHTON       FAIR      49  18  29 E7        30.28F
COPPER HARBOR    N/A     55  19  24 CALM      30.27F
IRONWOOD       FAIR      60  23  24 NW3       30.27F
$$

ABBREVIATIONS USED IN REMARKS
   TC - TEMPERATURE IN CELSIUS
  WCI - WIND CHILL INDEX
   HX - HEAT INDEX
  VSB - VISIBILITY




USA.gov is the U.S. government's official web portal to all federal, state and local government web resources and services.